Tracking 18850 objects as of 21-Nov-2017
HD Live streaming from Space Station
objects crossing your sky now

SECOR 3

Track SECOR 3 now!
10-day predictions
SECOR 3 is classified as:


NORAD ID: 1208
Int'l Code: 1965-016E
Perigee: 899.7 km
Apogee: 933.1 km
Inclination: 70.1 °
Period: 103.2 minutes
Semi major axis: 7287 km
RCS: 0.2205 m2 (medium)
Launch date: March 9, 1965
Source: United States (US)
Launch site: AIR FORCE WESTERN TEST RANGE (AFWTR)
aabbcc
Your satellite tracking list
Your tracking list is empty




NASA's NSSDC Master Catalog

Two Line Element Set (TLE):
1 01208U 65016E   17325.19134458  .00000004  00000-0  41554-4 0  9999
2 01208  70.0805   6.7193 0022901 244.0518 172.8132 13.95549225682899
Source of the keplerian elements: AFSPC